TAX73JC LIPE-EDDH

Flight info

Callsign TAX73JC
Flight time 1h 23m
Altitude 34000
Route LUMAV L12 VIC DCT ROKIB DCT GIKEB DCT EKPEB DCT BRENO DCT KONIN DCT ERNAS M726 KEMES DCT EMBOX M726 ERNUD M748 RARUP RARUP6A
Aircraft B77L/H-SDE1E2E3FGHIJ2J3J4J5M1RWXY/LB1D1

Departure

Time 2026-05-05 10:52
Airport Bologna Guglielmo Marconi Airport (LIPE)

Arrival

Time 2026-05-05 12:16
Airport Hamburg Helmut Schmidt Airport (EDDH)
Time Latitude Longitude Altitude Speed Heading
2026-05-05 10:20 44.53390 11.28294 135 ft 0 kts 207°
2026-05-05 10:42 44.53409 11.28308 129 ft 4 kts 206°
2026-05-05 10:42 44.53433 11.28324 133 ft 4 kts 205°
2026-05-05 10:43 44.53457 11.28341 131 ft 4 kts 213°
2026-05-05 10:43 44.53474 11.28364 131 ft 4 kts 263°
2026-05-05 10:43 44.53475 11.28374 132 ft 2 kts 296°
2026-05-05 10:43 44.53481 11.28354 135 ft 1 kts 297°
2026-05-05 10:47 44.53488 11.28334 129 ft 7 kts 297°
2026-05-05 10:47 44.53528 11.28305 131 ft 7 kts 356°
2026-05-05 10:47 44.53564 11.28261 127 ft 7 kts 298°
2026-05-05 10:48 44.53588 11.28198 130 ft 7 kts 296°
2026-05-05 10:48 44.53611 11.28133 129 ft 7 kts 296°
2026-05-05 10:48 44.53635 11.28068 134 ft 8 kts 296°
2026-05-05 10:48 44.53662 11.27992 130 ft 10 kts 296°
2026-05-05 10:49 44.53698 11.27892 129 ft 13 kts 297°
2026-05-05 10:49 44.53742 11.27769 128 ft 15 kts 296°
2026-05-05 10:49 44.53794 11.27624 131 ft 18 kts 296°
2026-05-05 10:49 44.53853 11.27461 130 ft 19 kts 297°
2026-05-05 10:50 44.53929 11.27310 131 ft 19 kts 322°
2026-05-05 10:50 44.54031 11.27222 125 ft 13 kts 332°
2026-05-05 10:50 44.54108 11.27250 129 ft 8 kts 39°
2026-05-05 10:50 44.54103 11.27311 134 ft 0 kts 116°
2026-05-05 10:51 44.54103 11.27312 134 ft 1 kts 116°
2026-05-05 10:51 44.53991 11.27625 127 ft 75 kts 117°
2026-05-05 10:51 44.53651 11.28573 131 ft 141 kts 117°
2026-05-05 10:52 44.53146 11.29970 368 ft 167 kts 116°
2026-05-05 10:52 44.52650 11.31472 906 ft 173 kts 99°
2026-05-05 10:52 44.52884 11.33115 1243 ft 187 kts 50°
2026-05-05 10:52 44.54010 11.34117 1575 ft 202 kts 20°
2026-05-05 10:53 44.55353 11.34856 2082 ft 215 kts 23°
2026-05-05 10:53 44.56725 11.35727 2736 ft 217 kts 25°
2026-05-05 10:53 44.58097 11.36683 3370 ft 223 kts 26°
2026-05-05 10:53 44.59490 11.37730 3967 ft 230 kts 28°
2026-05-05 10:54 44.60893 11.38825 4672 ft 231 kts 28°
2026-05-05 10:54 44.62303 11.39950 5298 ft 235 kts 27°
2026-05-05 10:54 44.63719 11.41093 5983 ft 235 kts 27°
2026-05-05 10:54 44.65168 11.42203 6475 ft 241 kts 18°
2026-05-05 10:55 44.66846 11.42855 6680 ft 261 kts
2026-05-05 10:55 44.68695 11.43305 7083 ft 276 kts
2026-05-05 10:55 44.70634 11.43741 7642 ft 288 kts
2026-05-05 10:55 44.72636 11.44197 8324 ft 295 kts
2026-05-05 10:56 44.74681 11.44677 9115 ft 300 kts
2026-05-05 10:56 44.76746 11.45175 9933 ft 303 kts
2026-05-05 10:56 44.78847 11.45689 10522 ft 314 kts
2026-05-05 10:56 44.81095 11.46242 10739 ft 341 kts
2026-05-05 10:57 44.83522 11.46847 10945 ft 368 kts
2026-05-05 10:57 44.86124 11.47502 11337 ft 388 kts
2026-05-05 10:57 44.88813 11.48187 12064 ft 398 kts
2026-05-05 10:57 44.91558 11.48891 13014 ft 403 kts
2026-05-05 10:58 44.94336 11.49605 13950 ft 408 kts
2026-05-05 10:58 44.97146 11.50328 14774 ft 414 kts
2026-05-05 10:58 45.00000 11.51062 15568 ft 420 kts
2026-05-05 10:58 45.02897 11.51809 16349 ft 426 kts
2026-05-05 10:59 45.05835 11.52563 17146 ft 432 kts
2026-05-05 10:59 45.08812 11.53327 17929 ft 437 kts
2026-05-05 10:59 45.11826 11.54103 18644 ft 443 kts
2026-05-05 10:59 45.14870 11.54888 19327 ft 447 kts
2026-05-05 11:00 45.17949 11.55684 20024 ft 451 kts
2026-05-05 11:00 45.21048 11.56490 20755 ft 455 kts
2026-05-05 11:00 45.24180 11.57298 21548 ft 459 kts
2026-05-05 11:00 45.27333 11.58111 22219 ft 464 kts
2026-05-05 11:01 45.30531 11.58940 22843 ft 469 kts
2026-05-05 11:01 45.33754 11.59777 23488 ft 473 kts
2026-05-05 11:01 45.37010 11.60625 24058 ft 477 kts
2026-05-05 11:01 45.40288 11.61478 24610 ft 481 kts
2026-05-05 11:02 45.43590 11.62338 25151 ft 484 kts 10°
2026-05-05 11:02 45.46915 11.63206 25704 ft 487 kts 10°
2026-05-05 11:02 45.50263 11.64081 26241 ft 491 kts 10°
2026-05-05 11:02 45.53634 11.64961 26751 ft 494 kts 10°
2026-05-05 11:03 45.57029 11.65849 27258 ft 498 kts 10°
2026-05-05 11:03 45.60452 11.66747 27746 ft 502 kts 10°
2026-05-05 11:03 45.63954 11.67580 28220 ft 506 kts
2026-05-05 11:03 45.67471 11.67963 28692 ft 508 kts
2026-05-05 11:04 45.71016 11.68109 29179 ft 511 kts
2026-05-05 11:04 45.74585 11.68234 29685 ft 514 kts
2026-05-05 11:04 45.78151 11.68379 30328 ft 512 kts
2026-05-05 11:04 45.81695 11.68556 31025 ft 507 kts
2026-05-05 11:05 45.85221 11.68746 31481 ft 508 kts
2026-05-05 11:05 45.88749 11.68934 31964 ft 508 kts
2026-05-05 11:05 45.92281 11.69001 32445 ft 507 kts 356°
2026-05-05 11:05 45.95784 11.68642 32926 ft 504 kts 350°
2026-05-05 11:06 45.99216 11.67769 33501 ft 498 kts 345°
2026-05-05 11:06 46.02592 11.66737 34022 ft 497 kts 344°
2026-05-05 11:06 46.05990 11.65683 34018 ft 502 kts 345°
2026-05-05 11:06 46.09410 11.64658 34368 ft 502 kts 345°
2026-05-05 11:07 46.12831 11.63668 34862 ft 499 kts 345°
2026-05-05 11:07 46.16217 11.62699 35386 ft 494 kts 345°
2026-05-05 11:07 46.19579 11.61733 35837 ft 491 kts 345°
2026-05-05 11:07 46.22928 11.60763 36024 ft 493 kts 345°
2026-05-05 11:08 46.26302 11.59777 35984 ft 495 kts 345°
2026-05-05 11:08 46.33028 11.57805 35978 ft 490 kts 345°
2026-05-05 11:09 46.39693 11.55853 35976 ft 488 kts 345°
2026-05-05 11:09 46.46334 11.53898 35986 ft 487 kts 345°
2026-05-05 11:10 46.52978 11.51940 35994 ft 487 kts 345°
2026-05-05 11:10 46.59615 11.49984 35975 ft 487 kts 345°
2026-05-05 11:11 46.66249 11.48015 35989 ft 487 kts 345°
2026-05-05 11:11 46.72891 11.45982 35971 ft 488 kts 344°
2026-05-05 11:12 46.79525 11.43784 35959 ft 490 kts 344°
2026-05-05 11:12 46.86195 11.41580 35953 ft 492 kts 344°
2026-05-05 11:13 46.92894 11.39378 35917 ft 494 kts 344°
2026-05-05 11:13 46.99681 11.37642 35900 ft 498 kts 353°
2026-05-05 11:14 47.06629 11.37455 35910 ft 500 kts 358°
2026-05-05 11:14 47.13585 11.37492 35864 ft 500 kts 358°
2026-05-05 11:15 47.20532 11.37474 35858 ft 499 kts 357°
2026-05-05 11:15 47.27473 11.37409 35867 ft 499 kts 357°
2026-05-05 11:16 47.34420 11.37332 35865 ft 499 kts 357°
2026-05-05 11:16 47.41374 11.37257 35851 ft 500 kts 357°
2026-05-05 11:17 47.48322 11.37186 35835 ft 499 kts 357°
2026-05-05 11:17 47.55266 11.37115 35817 ft 499 kts 357°
2026-05-05 11:18 47.62195 11.37043 35819 ft 498 kts 357°
2026-05-05 11:18 47.69130 11.36972 35802 ft 499 kts 357°
2026-05-05 11:19 47.76069 11.36899 35803 ft 499 kts 357°
2026-05-05 11:19 47.83014 11.36827 35819 ft 499 kts 357°
2026-05-05 11:20 47.89935 11.36293 35829 ft 498 kts 352°
2026-05-05 11:20 47.96822 11.35222 35830 ft 498 kts 351°
2026-05-05 11:21 48.03713 11.34130 35827 ft 498 kts 351°
2026-05-05 11:21 48.10601 11.33082 35839 ft 498 kts 351°
2026-05-05 11:22 48.17500 11.32053 35829 ft 498 kts 351°
2026-05-05 11:22 48.24391 11.31025 35828 ft 497 kts 351°
2026-05-05 11:23 48.31275 11.29992 35825 ft 497 kts 351°
2026-05-05 11:23 48.38156 11.28956 35825 ft 497 kts 351°
2026-05-05 11:24 48.43875 11.28092 35823 ft 497 kts 351°
2026-05-05 11:24 48.50758 11.27050 35826 ft 497 kts 351°
2026-05-05 11:25 48.57651 11.26003 35833 ft 498 kts 352°
2026-05-05 11:25 48.64552 11.24953 35831 ft 499 kts 352°
2026-05-05 11:26 48.71454 11.23900 35832 ft 499 kts 352°
2026-05-05 11:26 48.78363 11.22842 35842 ft 499 kts 351°
2026-05-05 11:27 48.85276 11.21860 35834 ft 500 kts 355°
2026-05-05 11:27 48.92216 11.21823 35834 ft 500 kts 358°
2026-05-05 11:28 48.99172 11.21956 35831 ft 499 kts 358°
2026-05-05 11:28 49.06066 11.22025 35823 ft 498 kts 358°
2026-05-05 11:29 49.12989 11.22057 35827 ft 497 kts 358°
2026-05-05 11:29 49.19911 11.22091 35814 ft 497 kts 358°
2026-05-05 11:30 49.26818 11.22141 35816 ft 496 kts 358°
2026-05-05 11:30 49.33770 11.22208 35808 ft 495 kts 358°
2026-05-05 11:31 49.40662 11.22272 35812 ft 495 kts 358°
2026-05-05 11:31 49.47416 11.22332 35805 ft 496 kts 358°
2026-05-05 11:32 49.54333 11.22394 35813 ft 498 kts 358°
2026-05-05 11:32 49.61275 11.22605 35808 ft 500 kts 359°
2026-05-05 11:33 49.68229 11.22981 35818 ft 501 kts 359°
2026-05-05 11:33 49.75200 11.23358 35820 ft 501 kts 359°
2026-05-05 11:34 49.82176 11.23706 35817 ft 501 kts 359°
2026-05-05 11:34 49.89134 11.24042 35846 ft 501 kts 359°
2026-05-05 11:35 49.96059 11.24374 35829 ft 501 kts 359°
2026-05-05 11:35 50.02883 11.24704 35833 ft 500 kts 359°
2026-05-05 11:36 50.09888 11.25045 35840 ft 499 kts 359°
2026-05-05 11:36 50.16783 11.25381 35840 ft 499 kts 358°
2026-05-05 11:37 50.23762 11.25723 35841 ft 498 kts 358°
2026-05-05 11:37 50.30572 11.26058 35849 ft 497 kts 358°
2026-05-05 11:38 50.37483 11.26399 35853 ft 497 kts 358°
2026-05-05 11:38 50.44253 11.26731 35851 ft 496 kts 358°
2026-05-05 11:39 50.51155 11.27075 35855 ft 496 kts 358°
2026-05-05 11:39 50.58059 11.27418 35859 ft 496 kts 358°
2026-05-05 11:40 50.64953 11.27761 35860 ft 496 kts 358°
2026-05-05 11:40 50.71862 11.28104 35864 ft 497 kts 358°
2026-05-05 11:41 50.78777 11.28450 35877 ft 498 kts 358°
2026-05-05 11:41 50.85564 11.28792 35872 ft 500 kts 358°
2026-05-05 11:42 50.92521 11.29142 35878 ft 501 kts 358°
2026-05-05 11:42 50.99492 11.29495 35866 ft 502 kts 358°
2026-05-05 11:43 51.06475 11.29850 35875 ft 502 kts 358°
2026-05-05 11:43 51.13447 11.30205 35870 ft 501 kts 358°
2026-05-05 11:44 51.20414 11.30561 35873 ft 500 kts 358°
2026-05-05 11:44 51.27368 11.30917 35886 ft 499 kts 357°
2026-05-05 11:45 51.34304 11.31274 35869 ft 498 kts 357°
2026-05-05 11:45 51.41222 11.31629 35871 ft 496 kts 357°
2026-05-05 11:46 51.48113 11.31985 35874 ft 495 kts 357°
2026-05-05 11:46 51.54998 11.32342 35888 ft 495 kts 357°
2026-05-05 11:47 51.61877 11.32698 35878 ft 494 kts 357°
2026-05-05 11:47 51.68746 11.33056 35881 ft 494 kts 357°
2026-05-05 11:48 51.79000 11.33592 35894 ft 494 kts 357°
2026-05-05 11:48 51.85865 11.33953 35896 ft 494 kts 357°
2026-05-05 11:49 51.92732 11.34314 35880 ft 494 kts 357°
2026-05-05 11:49 51.99596 11.34677 35893 ft 494 kts 357°
2026-05-05 11:50 52.06466 11.35102 35881 ft 496 kts
2026-05-05 11:50 52.13348 11.36377 35881 ft 499 kts
2026-05-05 11:51 52.20234 11.37821 35880 ft 499 kts
2026-05-05 11:51 52.27119 11.39202 35883 ft 498 kts
2026-05-05 11:52 52.33984 11.40547 35877 ft 496 kts
2026-05-05 11:52 52.40829 11.41902 35584 ft 499 kts
2026-05-05 11:53 52.44318 11.42602 34748 ft 507 kts
2026-05-05 11:53 52.47809 11.43314 33989 ft 506 kts
2026-05-05 11:53 52.51304 11.44029 33149 ft 505 kts
2026-05-05 11:53 52.54762 11.44738 32587 ft 497 kts
2026-05-05 11:54 52.58177 11.45435 32019 ft 492 kts
2026-05-05 11:54 52.61556 11.46124 31491 ft 486 kts
2026-05-05 11:54 52.64896 11.46804 30959 ft 481 kts
2026-05-05 11:54 52.68208 11.47477 30446 ft 477 kts
2026-05-05 11:55 52.71487 11.48142 29966 ft 473 kts
2026-05-05 11:55 52.74743 11.48801 29355 ft 470 kts
2026-05-05 11:55 52.77971 11.49455 28807 ft 465 kts
2026-05-05 11:55 52.81164 11.50104 28294 ft 460 kts
2026-05-05 11:56 52.84326 11.50748 27778 ft 456 kts
2026-05-05 11:56 52.87461 11.51387 27260 ft 452 kts
2026-05-05 11:56 52.90547 11.51806 26742 ft 439 kts 352°
2026-05-05 11:56 52.93491 11.50983 26272 ft 422 kts 336°
2026-05-05 11:57 52.96105 11.49025 26072 ft 402 kts 321°
2026-05-05 11:57 52.98260 11.46139 26069 ft 399 kts 309°
2026-05-05 11:57 53.00052 11.42630 25879 ft 397 kts 299°
2026-05-05 11:57 53.01353 11.38625 25207 ft 394 kts 291°
2026-05-05 11:58 53.02504 11.34493 24585 ft 395 kts 291°
2026-05-05 11:58 53.03620 11.30398 24066 ft 393 kts 291°
2026-05-05 11:58 53.04759 11.26223 23607 ft 390 kts 291°
2026-05-05 11:58 53.05884 11.22141 23078 ft 387 kts 292°
2026-05-05 11:59 53.06986 11.18179 22418 ft 377 kts 292°
2026-05-05 11:59 53.08086 11.14243 21398 ft 375 kts 292°
2026-05-05 11:59 53.09188 11.10311 20382 ft 374 kts 293°
2026-05-05 11:59 53.10285 11.06400 19449 ft 372 kts 293°
2026-05-05 12:00 53.11375 11.02519 18555 ft 368 kts 294°
2026-05-05 12:00 53.12453 10.98681 17648 ft 364 kts 294°
2026-05-05 12:00 53.13516 10.94889 16867 ft 356 kts 294°
2026-05-05 12:00 53.14538 10.91244 16417 ft 340 kts 294°
2026-05-05 12:01 53.15517 10.87745 15965 ft 328 kts 293°
2026-05-05 12:01 53.16465 10.84349 15546 ft 319 kts 293°
2026-05-05 12:01 53.17394 10.81010 15161 ft 318 kts 293°
2026-05-05 12:01 53.18331 10.77634 14768 ft 326 kts 293°
2026-05-05 12:02 53.19315 10.74081 14354 ft 348 kts 293°
2026-05-05 12:02 53.20336 10.70393 13884 ft 350 kts 293°
2026-05-05 12:02 53.21362 10.66685 13398 ft 353 kts 293°
2026-05-05 12:02 53.22387 10.62979 12899 ft 351 kts 293°
2026-05-05 12:03 53.23404 10.59299 12437 ft 347 kts 293°
2026-05-05 12:03 53.24408 10.55658 11986 ft 343 kts 293°
2026-05-05 12:03 53.25400 10.52054 11543 ft 339 kts 293°
2026-05-05 12:03 53.26379 10.48490 11111 ft 336 kts 293°
2026-05-05 12:04 53.27346 10.44964 10696 ft 332 kts 293°
2026-05-05 12:04 53.28290 10.41520 10562 ft 320 kts 292°
2026-05-05 12:04 53.29204 10.38178 10444 ft 315 kts 293°
2026-05-05 12:04 53.30101 10.34902 10429 ft 314 kts 293°
2026-05-05 12:05 53.31003 10.31593 10345 ft 309 kts 293°
2026-05-05 12:05 53.31887 10.28341 10117 ft 306 kts 292°
2026-05-05 12:05 53.32762 10.25107 10057 ft 307 kts 292°
2026-05-05 12:05 53.33650 10.21840 9955 ft 303 kts 292°
2026-05-05 12:06 53.34519 10.18700 9580 ft 290 kts 292°
2026-05-05 12:06 53.35328 10.15716 9078 ft 275 kts 292°
2026-05-05 12:06 53.36095 10.12860 8564 ft 263 kts 292°
2026-05-05 12:06 53.36838 10.10094 8227 ft 258 kts 292°
2026-05-05 12:07 53.37572 10.07360 7891 ft 255 kts 292°
2026-05-05 12:07 53.38329 10.04715 7579 ft 249 kts 293°
2026-05-05 12:07 53.39047 10.02103 7345 ft 244 kts 292°
2026-05-05 12:07 53.39748 9.99442 6960 ft 257 kts 292°
2026-05-05 12:08 53.40463 9.96615 6578 ft 268 kts 293°
2026-05-05 12:08 53.41222 9.93748 6154 ft 265 kts 292°
2026-05-05 12:08 53.41951 9.91011 5842 ft 249 kts 293°
2026-05-05 12:08 53.42641 9.88442 5523 ft 233 kts 294°
2026-05-05 12:09 53.43285 9.86042 5463 ft 217 kts 293°
2026-05-05 12:09 53.43878 9.83812 5358 ft 202 kts 294°
2026-05-05 12:09 53.44260 9.82380 5383 ft 203 kts 294°
2026-05-05 12:09 53.44825 9.80261 5265 ft 196 kts 294°
2026-05-05 12:10 53.45381 9.78176 4994 ft 196 kts 294°
2026-05-05 12:10 53.45946 9.76055 4764 ft 204 kts 294°
2026-05-05 12:10 53.46554 9.73901 4480 ft 204 kts 302°
2026-05-05 12:10 53.47629 9.72366 4074 ft 208 kts 336°
2026-05-05 12:11 53.49046 9.72077 3768 ft 208 kts 11°
2026-05-05 12:11 53.50296 9.73138 3585 ft 198 kts 43°
2026-05-05 12:11 53.51155 9.74831 3414 ft 186 kts 50°
2026-05-05 12:11 53.51959 9.76461 3188 ft 178 kts 49°
2026-05-05 12:12 53.52734 9.78027 2934 ft 170 kts 50°
2026-05-05 12:12 53.53474 9.79520 2707 ft 162 kts 50°
2026-05-05 12:12 53.54208 9.81000 2498 ft 168 kts 50°
2026-05-05 12:12 53.54951 9.82501 2270 ft 166 kts 50°
2026-05-05 12:13 53.55683 9.83977 2047 ft 163 kts 50°
2026-05-05 12:13 53.56403 9.85432 1811 ft 161 kts 50°
2026-05-05 12:13 53.57122 9.86880 1579 ft 159 kts 50°
2026-05-05 12:13 53.57794 9.88235 1397 ft 149 kts 50°
2026-05-05 12:14 53.58452 9.89563 1172 ft 142 kts 49°
2026-05-05 12:14 53.59064 9.90795 1009 ft 136 kts 50°
2026-05-05 12:14 53.59683 9.92051 795 ft 141 kts 50°
2026-05-05 12:14 53.60321 9.93327 593 ft 144 kts 51°
2026-05-05 12:15 53.60949 9.94599 404 ft 140 kts 50°
2026-05-05 12:15 53.61563 9.95855 219 ft 136 kts 52°
2026-05-05 12:15 53.62151 9.97022 49 ft 126 kts 51°
2026-05-05 12:15 53.62640 9.98020 46 ft 88 kts 50°
2026-05-05 12:16 53.62912 9.98571 49 ft 34 kts 50°
2026-05-05 12:16 53.63026 9.98798 50 ft 28 kts 50°
2026-05-05 12:16 53.63149 9.99048 51 ft 28 kts 51°
2026-05-05 12:16 53.63272 9.99298 46 ft 28 kts 50°
2026-05-05 12:17 53.63394 9.99549 48 ft 28 kts 50°
2026-05-05 12:17 53.63519 9.99797 48 ft 28 kts 50°
2026-05-05 12:17 53.63601 10.00000 51 ft 13 kts 89°
2026-05-05 12:17 53.63546 10.00106 47 ft 11 kts 141°
2026-05-05 12:18 53.63537 10.00118 50 ft 0 kts 140°
2026-05-05 12:19 53.63521 10.00140 47 ft 7 kts 140°
2026-05-05 12:19 53.63464 10.00182 47 ft 10 kts 173°
2026-05-05 12:19 53.63395 10.00192 48 ft 10 kts 175°
2026-05-05 12:20 53.63326 10.00200 48 ft 10 kts 176°
2026-05-05 12:20 53.63257 10.00209 48 ft 10 kts 175°
2026-05-05 12:20 53.63187 10.00217 51 ft 10 kts 176°
2026-05-05 12:20 53.63118 10.00224 48 ft 10 kts 176°
2026-05-05 12:21 53.63051 10.00205 49 ft 10 kts 206°
2026-05-05 12:21 53.62989 10.00138 46 ft 11 kts 213°
2026-05-05 12:21 53.62925 10.00069 46 ft 11 kts 211°
2026-05-05 12:21 53.62852 10.00005 49 ft 13 kts 207°
2026-05-05 12:22 53.62757 9.99918 47 ft 18 kts 208°
2026-05-05 12:22 53.62651 9.99801 49 ft 18 kts 234°
2026-05-05 12:22 53.62619 9.99593 46 ft 18 kts 259°
2026-05-05 12:22 53.62595 9.99382 49 ft 18 kts 259°
2026-05-05 12:23 53.62578 9.99194 50 ft 12 kts 275°
2026-05-05 12:23 53.62637 9.99099 45 ft 12 kts 332°
2026-05-05 12:23 53.62697 9.99057 45 ft 7 kts
2026-05-05 12:23 53.62730 9.99118 50 ft 7 kts 61°
2026-05-05 12:24 53.62745 9.99168 45 ft 3 kts 62°
2026-05-05 12:24 53.62748 9.99178 45 ft 0 kts 62°